User: anonymous   Login
Location: Libas
(9.8833°N, 125.9833°E)
Time: 10:58:48
(UTC+00:00)
Language:

ARIANE 44L R/B - Orbit

View from above orbital plane
View from above orbital plane
View from above satellite
View from above satellite

Ground track
Ground track

The orbit data is extracted from the following two-line orbital elements,

1 27604U 02057B   21021.88007485  .00000135  00000-0  19836-3 0  9998
2 27604   7.5705  43.7966 7159096 132.6836 315.0164  2.39349686151418
Epoch (UTC): 21 January 2021 21:07:18
Eccentricity: 0.7159096
inclination: 7.5705°
perigee height: 328 km
apogee height: 34129 km
right ascension of ascending node: 43.7966°
argument of perigee: 132.6836°
revolutions per day: 2.39349686
mean anomaly at epoch: 315.0164°
orbit number at epoch: 15141

The dashed part of the orbit path shows where the satellite is in the earth's shadow,  

DLR